Location: Newark
(34.3481°N, 134.0494°E)
Time: 03:28:20
(UTC+00:00)

Vanguard 3 - Pass Details

Date: 02 February 2020
Orbit: 508 x 3263 km, 33.3° (Epoch: 17 February)

Event Time Altitude Azimuth Distance (km) Brightness Sun altitude
Rises 02:04:30 0° 170° (S) 4,923 12.1 35.8°
Reaches altitude 10° 02:11:51 10° 137° (SE) 4,710 12.1 36.3°
Maximum altitude 02:14:49 11° 124° (SE) 4,904 12.0 36.5°
Drops below altitude 10° 02:18:03 10° 111° (ESE) 5,256 11.9 36.7°
Sets 02:28:31 0° 83° (E) 6,931 12.0 37.4°
